Location: Frankfurt am Main
(50.1109°N, 8.6821°E)
Time: 03:32:35
(UTC+01:00)

X-37B - Pass Details

Date: 26 October 2021
Orbit: 330 x 341 km, 45.0° (Epoch: 20 November)

Event Time Altitude Azimuth Distance (km) Brightness Sun altitude
Rises 18:44:33 0° 265° (W) 2,127 6.8 -5.8°
Reaches altitude 10° 18:46:55 10° 245° (WSW) 1,286 4.9 -6.2°
Maximum altitude 18:49:01 18° 199° (SSW) 913 2.9 -6.5°
Drops below altitude 10° 18:51:07 10° 152° (SSE) 1,282 3.0 -6.8°
Enters shadow 18:53:36 - 132° (SE) 2,167 4.0 -7.2°
